Theta_e
319 321 324 320 326 331 330 333 334 329 320 318 321 324 323 324 322 318 318 319 319 322 324 326 329 330 331 331 333 334 334 334 333 332 331 331 329 328 329 330 330 330 329 327
321 324 323 318 322 323 328 330 331 327 315 315 320 322 322 321 322 323 321 317 318 319 321 324 328 330 331 331 332 333 334 334 334 333 332 332 330 330 330 330 330 330 330 328
324 325 325 321 321 323 326 325 326 325 316 314 317 320 321 320 318 320 321 321 317 318 318 322 326 329 330 331 331 333 333 334 334 333 333 332 331 330 332 331 331 330 329 329
323 322 324 325 325 324 329 321 326 321 320 330 315 328 326 322 319 316 317 317 317 315 315 318 323 328 329 330 331 332 332 333 334 334 333 333 332 333 332 332 332 331 330 329
322 322 322 325 325 324 326 322 323 322 319 319 320 316 323 321 318 317 316 316 317 316 315 313 316 321 327 329 331 332 331 332 333 334 334 333 333 333 332 332 332 332 331 330
316 315 317 321 322 323 315 315 315 313 317 321 321 322 321 320 319 317 316 316 317 317 316 316 314 313 317 323 328 331 332 331 332 333 334 333 334 333 333 333 332 332 331 331
311 314 313 314 320 318 316 317 322 321 321 323 313 318 320 318 318 317 316 316 316 318 318 317 317 313 313 314 315 323 329 330 331 332 332 333 333 333 333 333 333 332 331 331
319 316 311 312 318 318 316 322 322 327 325 322 309 316 317 315 316 316 315 313 312 312 313 314 315 313 311 310 310 311 314 322 327 330 331 331 332 332 332 332 332 332 331 330
320 318 311 312 314 315 315 320 321 314 309 315 316 315 314 314 312 312 312 311 312 312 312 310 312 311 310 308 308 309 309 309 316 323 327 329 329 330 331 331 331 331 330 330
319 317 310 309 309 313 316 317 318 315 323 320 319 316 316 315 314 313 313 312 312 312 312 312 311 310 309 309 309 308 307 307 310 315 320 324 325 327 329 329 329 329 328 328
318 314 309 307 310 313 311 316 315 316 316 321 320 317 314 315 312 311 311 311 311 310 311 311 311 310 310 311 311 310 309 309 312 317 320 322 323 324 324 325 326 326 326 327
315 314 311 309 309 309 312 315 315 318 317 313 312 316 309 312 312 310 310 310 308 308 309 309 310 310 311 312 313 313 312 311 312 314 318 320 320 320 322 323 324 324 324 324
312 316 318 313 311 308 311 313 314 315 313 319 321 319 308 308 309 308 309 310 308 308 308 309 310 311 311 313 313 313 313 313 312 312 313 314 316 316 319 321 322 322 323 323
312 315 320 317 315 311 311 313 313 315 319 318 316 316 311 310 310 310 309 310 310 308 308 309 310 310 311 311 313 313 313 314 313 312 312 312 312 312 313 314 315 318 320 320
312 317 314 314 314 312 310 311 310 313 315 315 315 313 313 313 310 309 310 309 309 308 307 308 310 311 310 310 311 312 313 313 313 313 313 313 312 312 312 312 311 310 311 317
311 318 312 312 310 313 312 310 310 310 312 313 313 313 313 310 311 311 310 309 309 310 308 307 307 309 310 310 310 311 312 313 312 313 312 312 312 311 312 312 311 311 312 313
312 315 316 317 311 314 314 312 310 310 310 311 312 312 313 312 310 310 311 309 308 309 309 309 308 306 307 308 308 309 310 311 311 311 311 311 310 310 311 312 312 313 313 314
312 313 315 318 315 316 315 311 311 310 310 310 310 311 312 312 311 311 311 311 310 308 306 307 308 308 307 306 306 307 308 309 309 309 310 310 309 309 310 311 311 312 312 312
310 314 316 317 318 317 315 313 313 312 312 312 311 311 311 310 307 309 309 309 309 309 309 307 308 308 307 306 305 305 306 307 307 308 308 308 308 308 309 310 310 311 311 310
311 313 315 316 318 318 313 311 309 312 314 312 312 312 312 310 310 310 309 308 308 308 308 305 305 304 304 304 304 304 304 304 305 306 306 306 305 307 308 308 309 308 308 309
312 315 316 316 317 317 309 307 308 312 312 309 309 310 310 310 310 310 306 305 301 301 301 300 300 301 301 301 301 302 303 303 304 304 304 304 303 306 307 307 307 306 305 305
313 315 316 317 316 316 307 307 309 310 310 307 305 307 308 309 308 305 304 303 302 301 299 297 299 297 297 298 298 299 300 301 301 302 302 303 302 304 305 306 305 304 303 301
313 312 314 313 314 307 307 309 308 307 309 306 307 305 306 306 305 303 303 302 299 296 294 294 295 295 293 293 295 296 297 298 298 299 300 300 300 301 303 303 302 300 299 298
310 309 314 311 311 310 307 305 304 305 306 305 306 305 303 304 302 299 298 296 295 292 291 291 293 292 289 290 291 292 293 295 295 296 296 297 298 298 299 300 300 299 297 295
310 309 311 312 305 306 307 307 307 303 302 301 299 300 302 301 298 297 295 293 291 289 288 288 288 287 286 287 287 288 290 292 293 293 294 295 296 296 297 298 298 298 299 299
303 307 310 311 306 309 309 308 304 302 301 301 299 296 295 298 296 293 291 289 288 287 286 286 285 285 285 285 286 288 290 291 292 291 291 292 293 293 294 295 293 293 293 294
Wind_Speed
5 5 12 19 14 14 14 14 15 14 6 7 15 19 18 17 16 14 13 14 14 16 17 21 23 23 23 24 25 27 27 26 26 26 23 23 22 18 18 19 18 18 18 19
7 9 12 14 13 9 12 14 13 7 7 7 12 19 17 16 18 17 18 16 16 16 14 18 23 25 27 26 28 29 30 30 30 27 27 23 21 20 21 21 21 20 21 22
15 12 18 18 18 14 15 16 14 11 3 10 10 19 20 18 21 19 19 19 17 17 13 12 19 26 27 30 32 33 34 32 31 29 24 22 19 21 20 24 23 23 23 23
21 16 21 22 23 19 19 13 10 8 5 7 4 8 12 4 12 17 19 19 18 17 15 16 20 25 29 33 32 33 32 32 32 30 28 28 27 22 25 22 23 22 24 23
15 19 22 22 24 22 16 14 13 9 9 11 13 6 6 11 11 16 18 21 21 20 17 15 16 26 30 28 27 28 28 29 31 33 33 29 27 24 22 21 21 22 21 23
2 6 14 18 18 20 14 11 7 4 7 10 17 15 11 14 17 15 15 19 19 20 19 16 21 22 23 25 26 26 28 29 30 31 32 31 27 25 22 22 21 20 22 22
7 14 10 7 20 16 14 17 5 4 6 9 2 8 15 7 12 15 12 8 11 17 18 16 14 13 19 20 23 24 26 30 30 30 30 31 30 27 26 23 23 21 21 22
16 10 18 14 23 13 20 18 7 8 7 5 3 9 5 16 16 16 12 7 6 5 7 11 10 14 17 21 22 24 26 27 27 29 30 29 29 28 25 24 23 23 23 25
18 13 23 23 10 18 21 18 9 4 1 1 7 10 9 13 14 9 9 10 12 12 12 10 10 11 13 15 18 20 20 22 22 25 25 26 27 27 26 24 25 23 23 21
12 8 13 8 5 12 18 15 8 5 6 6 6 8 9 7 15 11 8 9 9 8 11 10 9 10 9 10 12 14 19 22 23 22 22 22 24 23 24 22 23 24 22 22
10 6 10 7 14 20 9 16 9 8 5 3 2 3 3 9 6 6 3 6 6 7 10 9 8 9 9 8 10 11 13 15 17 19 20 20 19 21 22 23 24 24 22 21
12 5 8 25 5 4 16 11 13 7 8 3 2 5 3 3 8 3 4 2 2 3 4 5 7 9 10 9 9 10 10 12 14 15 16 18 18 21 22 26 24 23 23 21
11 5 7 10 9 5 20 20 24 11 3 8 6 6 2 4 4 4 6 2 2 2 4 5 7 6 8 9 10 11 11 11 11 13 14 15 17 19 24 24 24 25 25 24
9 4 5 13 13 10 15 21 17 18 6 6 18 7 7 3 5 5 5 4 1 3 4 6 6 6 10 11 11 11 10 11 12 13 14 14 15 17 18 22 25 24 25 25
7 4 2 2 5 10 18 18 16 21 25 15 30 17 18 10 4 1 2 2 1 2 5 6 6 7 11 12 13 13 12 14 14 14 14 14 14 14 14 16 18 21 22 24
4 5 4 3 0 6 12 17 18 23 31 24 27 20 6 1 7 13 8 5 6 5 5 5 7 8 10 13 13 13 14 15 15 14 15 15 16 16 17 16 16 17 18 20
19 8 7 8 3 6 1 26 27 23 25 29 22 23 7 13 11 9 11 8 10 6 5 5 8 10 11 11 12 13 14 14 17 16 17 18 18 19 19 18 18 18 18 19
19 17 11 8 4 6 13 16 20 24 24 29 29 17 9 10 11 12 11 12 10 5 9 10 8 10 11 14 16 18 18 20 21 23 22 21 21 22 21 20 19 20 20 20
10 6 3 6 12 5 14 16 21 17 28 23 26 21 18 8 1 11 6 8 11 13 12 13 13 12 11 16 18 19 20 22 22 27 27 23 22 23 22 22 22 22 23 23
15 17 10 6 12 14 5 14 5 13 26 17 20 22 19 9 12 16 16 17 16 12 7 5 8 10 11 13 17 19 23 24 29 30 26 23 23 24 23 23 24 24 23 22
9 8 20 13 11 8 3 13 16 12 3 4 11 19 15 15 20 4 5 6 5 6 9 5 2 6 8 9 11 18 20 25 25 22 22 23 23 25 25 25 26 24 23 21
15 15 11 9 14 20 6 17 23 12 7 5 2 3 7 13 7 2 4 5 6 5 6 7 3 1 2 5 7 12 13 13 14 16 18 21 24 27 27 26 26 25 24 22
10 12 9 14 14 1 6 6 4 4 4 3 4 4 5 4 4 5 4 4 6 7 6 6 5 4 7 8 5 6 7 10 11 12 15 17 19 24 26 26 26 24 23 22
7 11 4 3 11 6 7 2 3 1 3 3 3 4 3 4 5 6 6 6 6 8 8 9 9 10 10 11 9 7 7 4 4 6 8 11 16 19 22 24 23 23 23 21
3 8 6 2 3 3 5 6 5 4 4 5 5 3 4 8 8 6 7 8 8 9 10 13 12 11 12 12 14 13 10 5 3 4 6 9 13 18 19 19 19 22 24 26
2 2 9 5 5 6 2 5 6 7 6 7 7 5 5 6 9 9 8 9 11 10 11 13 15 16 16 18 20 18 15 11 8 6 4 5 9 12 14 15 13 15 17 19
Wind_Direction
219 160 193 177 199 219 196 204 208 216 152 230 239 250 251 247 232 242 243 246 231 232 221 205 207 204 204 205 205 206 205 206 203 201 203 208 213 217 222 223 223 223 219 216
192 225 181 176 188 206 225 207 221 218 162 217 258 261 258 254 252 243 242 230 231 233 227 208 202 202 205 204 205 207 208 209 207 204 205 209 210 217 217 219 223 221 222 224
212 205 192 171 182 193 206 208 212 232 163 239 272 274 259 247 243 243 237 241 230 224 222 205 206 201 202 207 206 207 209 210 210 209 207 210 212 219 215 219 220 218 220 220
220 234 189 187 193 193 204 216 223 217 241 247 185 278 268 241 228 227 232 229 226 220 218 208 202 206 207 212 209 210 210 211 211 207 208 208 209 213 216 215 218 219 218 218
194 186 182 194 199 192 220 184 205 215 245 277 239 258 270 248 240 244 231 229 224 220 216 211 207 207 211 215 215 217 216 216 214 210 211 214 217 221 225 219 220 218 219 218
163 215 187 197 198 186 128 151 151 199 252 253 238 236 252 246 235 242 239 230 224 221 221 222 213 210 209 213 213 213 213 218 217 215 215 217 218 218 221 220 216 213 216 213
169 194 175 219 167 173 161 161 154 202 214 241 102 235 244 251 239 244 252 259 236 215 221 224 208 191 204 203 208 211 212 217 215 214 217 220 222 221 223 218 213 210 214 213
179 192 188 192 181 177 186 182 175 194 217 240 139 237 249 244 245 246 249 246 274 278 247 244 238 207 208 208 212 214 216 222 216 212 215 218 223 224 224 222 219 214 214 215
188 198 176 175 196 157 193 206 212 94 133 289 212 247 275 261 240 234 238 240 238 229 220 223 221 204 208 206 212 214 214 219 216 215 213 215 218 218 220 219 217 217 217 219
186 158 178 167 149 199 194 163 189 210 192 228 242 257 254 222 237 238 246 243 252 239 224 207 192 198 203 205 206 206 210 211 209 207 210 212 214 214 217 216 218 220 223 221
197 120 170 149 206 188 174 190 204 185 216 252 274 233 209 244 156 180 291 289 270 280 241 220 191 194 200 199 198 199 198 199 200 200 201 205 206 213 213 217 220 223 222 224
191 118 166 198 204 282 203 196 196 186 194 193 60 271 52 171 142 81 324 264 241 223 207 198 189 186 188 194 192 193 185 185 193 192 194 200 202 209 212 219 221 221 226 230
159 148 117 174 223 201 202 198 202 215 79 203 192 224 299 123 179 241 282 304 197 176 160 166 174 191 197 198 199 196 188 178 176 178 187 192 197 203 214 219 221 223 226 225
131 159 171 193 209 142 193 200 206 209 203 191 224 212 160 166 238 257 259 243 222 186 176 182 195 203 209 207 204 202 196 185 180 184 187 191 196 203 209 217 219 218 218 218
158 118 79 212 157 161 186 193 190 204 226 210 242 219 241 251 199 308 331 42 15 214 207 202 210 222 217 209 205 201 197 193 191 188 189 195 200 201 198 202 207 212 213 216
170 182 114 14 158 147 178 192 191 204 221 229 244 254 242 84 276 267 234 203 230 221 224 199 216 223 221 213 210 205 205 199 195 196 200 201 203 200 202 203 207 209 207 207
184 154 182 220 135 111 249 202 203 214 216 222 230 237 211 232 227 242 256 238 245 228 225 225 220 226 221 207 207 209 208 207 206 207 209 209 208 210 209 206 202 203 203 202
163 179 178 178 145 209 250 201 213 215 221 226 240 236 235 243 235 228 237 256 262 223 235 246 245 218 201 204 216 214 211 208 217 218 219 217 214 214 208 205 204 203 202 205
177 156 103 163 199 255 245 215 210 209 240 230 236 237 241 243 325 250 236 249 256 250 238 236 235 221 200 212 214 212 214 217 221 230 227 223 224 220 211 208 207 208 204 203
209 197 185 179 196 218 263 192 138 199 258 227 244 249 245 199 236 241 222 228 245 259 253 195 225 237 233 238 223 211 215 215 224 231 234 231 226 221 216 217 216 213 209 206
175 180 198 201 217 257 163 144 137 173 271 136 209 236 223 211 228 246 28 42 42 23 24 3 269 246 240 230 234 223 209 214 230 237 243 240 233 222 216 214 221 217 212 208
176 175 195 196 218 252 143 160 180 224 247 135 125 169 203 219 238 39 74 84 68 57 28 12 21 38 301 278 254 248 244 244 249 247 238 233 228 218 214 212 210 210 206 200
199 198 179 194 215 133 194 180 234 36 117 145 142 144 149 171 207 164 128 66 56 39 37 14 43 59 17 0 343 290 281 270 250 235 229 227 225 217 213 206 204 200 202 204
217 183 191 103 210 179 175 213 290 351 97 116 76 103 142 146 111 109 97 74 56 35 45 31 67 60 35 25 18 2 334 284 227 207 204 202 209 206 206 205 205 204 203 205
157 151 162 282 62 13 282 226 224 111 86 107 63 41 87 108 85 80 84 77 70 50 32 52 54 61 51 44 38 30 20 19 99 154 191 187 199 200 195 203 208 213 221 223
341 198 197 224 67 261 95 283 143 146 161 151 135 111 57 106 109 109 95 86 83 77 57 52 57 60 49 53 46 39 38 37 44 71 126 167 187 195 201 202 202 217 226 228